Theta_e
292 293 291 293 292 293 294 293 294 294 294 294 295 296 296 295 295 295 291 294 292 293 293 294 294 293 293 293 293 293 293 293 293 296 298 298 297 297 296 296 297 297 296 295 295 296 296 297 297 297 296 295 294 293 292 292 291 291 290 290 290 290 290 290 290 290 283 282 283 283 283 284 283 283 282 282 282 283 284 282 283 283 283 283 283
293 293 291 291 291 293 292 291 292 291 292 293 293 294 294 293 293 289 291 293 289 293 293 293 292 292 292 293 292 292 292 294 292 292 294 295 295 296 296 295 295 295 295 296 295 295 295 295 296 296 295 295 294 293 292 291 290 290 290 289 290 290 290 290 290 290 289 280 281 282 282 284 282 283 282 281 281 283 282 282 282 282 282 282 281
292 291 292 292 292 291 290 290 289 289 290 292 291 292 292 289 288 290 291 291 288 290 292 291 291 291 292 292 292 292 292 292 292 292 293 294 294 294 295 295 295 295 294 295 295 294 294 294 295 295 295 294 293 293 292 292 291 290 290 290 289 290 289 290 290 288 288 283 281 281 281 282 281 281 282 282 282 282 281 281 281 282 282 282 281
290 290 290 290 290 289 290 289 288 288 288 290 290 290 290 289 288 289 290 289 290 290 289 291 290 290 291 291 291 291 291 291 291 291 293 293 293 294 294 294 294 295 295 295 295 294 294 294 294 294 294 293 293 293 292 292 291 290 290 290 289 290 290 288 289 289 287 284 282 281 281 280 280 281 282 282 281 281 281 281 281 281 281 282 281
288 289 288 289 290 289 289 288 287 288 289 289 289 289 289 288 287 289 289 289 290 289 289 288 290 291 291 292 292 291 291 291 291 291 291 291 292 293 293 293 294 294 294 295 293 295 294 294 294 294 293 293 293 292 292 291 291 290 290 290 289 289 289 287 287 287 286 285 280 280 281 279 279 281 281 280 279 279 280 280 280 280 280 281 281
288 288 288 288 290 289 288 287 288 288 288 288 289 289 288 287 288 288 288 290 290 289 290 289 289 291 291 291 291 291 291 290 291 292 292 291 291 292 292 293 293 294 294 294 294 294 294 294 294 294 293 292 292 292 292 291 290 289 289 289 289 288 287 286 286 285 286 284 281 278 279 278 278 279 280 280 278 277 277 277 278 279 279 278 279
288 287 287 286 287 288 288 288 288 288 288 288 288 288 288 287 287 288 288 288 289 290 289 289 289 289 291 290 291 291 291 290 290 291 291 291 291 292 292 292 292 293 293 294 294 294 294 294 294 293 293 293 292 292 291 290 290 289 289 289 288 287 286 286 285 284 284 283 281 280 279 279 279 277 278 279 279 279 278 277 278 278 278 278 278
288 287 286 287 287 288 288 287 287 288 288 287 288 287 287 287 287 287 286 288 288 289 289 290 289 288 289 290 290 290 290 290 290 291 291 290 290 290 291 291 292 292 292 292 292 292 293 293 293 293 293 293 292 292 291 290 289 288 288 288 287 286 286 285 284 284 284 283 281 279 279 278 278 278 278 278 278 278 279 279 279 278 277 278 279
288 288 288 288 289 288 287 287 287 287 287 287 287 287 287 287 287 287 286 287 288 288 288 288 288 289 289 289 289 289 290 291 291 291 291 290 290 290 291 291 291 291 291 291 291 291 291 292 292 292 291 290 290 291 291 291 289 288 287 287 286 286 285 285 284 284 283 282 280 279 278 278 277 276 277 278 279 279 279 280 280 280 279 277 278
287 288 288 288 288 288 287 287 287 286 286 287 287 287 287 287 286 286 287 287 287 287 287 287 288 288 289 289 289 289 290 291 290 292 293 292 290 290 290 290 290 290 290 290 290 290 290 290 291 289 288 288 288 289 291 290 290 290 289 287 286 285 285 284 283 283 282 281 279 279 278 277 277 278 278 279 280 279 278 279 278 278 277 277 277
287 287 288 288 288 287 287 287 287 287 287 286 286 287 287 286 286 286 286 286 287 287 286 287 287 287 288 289 289 289 290 290 291 293 294 294 291 289 289 289 290 290 290 290 290 290 290 289 289 288 287 287 287 288 290 290 290 289 289 288 287 286 285 284 283 283 282 281 280 279 279 278 278 279 279 279 280 280 279 279 279 277 277 277 276
286 287 287 287 287 287 287 287 287 287 287 287 287 287 286 286 286 286 286 286 286 285 285 287 287 287 288 288 288 289 290 290 292 293 294 294 293 290 290 290 290 290 290 290 290 290 290 289 288 288 288 288 287 287 288 289 289 289 288 287 287 288 288 286 284 283 283 282 280 280 280 279 279 280 279 279 279 280 280 279 279 278 277 277 277
286 286 287 287 287 287 286 286 286 287 287 287 287 287 286 286 286 287 287 287 285 285 287 286 287 286 287 288 288 289 289 291 293 293 293 294 294 292 290 290 290 290 290 290 290 290 289 289 288 287 287 286 286 286 286 286 287 288 287 287 286 287 288 288 288 286 285 283 281 281 282 282 280 280 281 280 281 279 279 278 278 278 278 277 277
285 286 286 286 286 286 286 286 286 286 286 286 286 286 286 286 286 286 286 286 285 286 286 286 286 286 287 287 288 288 288 290 292 293 293 293 293 293 290 289 289 290 290 290 289 289 289 289 288 286 285 285 285 285 285 285 285 285 284 284 284 285 286 287 287 286 286 285 283 282 284 284 282 282 282 283 281 280 279 278 278 277 277 277 279
286 286 286 286 286 286 286 286 285 286 286 286 285 286 286 286 286 286 286 286 286 287 287 287 287 286 286 287 287 287 288 290 291 292 292 293 293 293 290 289 289 289 289 289 289 289 288 288 287 287 285 284 285 285 285 285 284 284 283 283 283 284 285 285 285 285 285 285 285 285 284 285 284 283 282 283 283 282 281 280 279 279 278 278 277
285 286 286 286 286 286 285 285 285 285 285 285 285 285 286 286 286 286 286 286 285 285 285 285 286 286 286 286 286 287 288 290 291 291 292 292 293 290 288 288 288 288 288 288 288 288 288 287 286 285 284 283 284 286 286 285 284 283 282 283 283 284 284 285 286 286 285 285 285 285 284 284 284 283 283 282 282 281 281 280 280 278 277 276 276
286 286 286 286 286 286 285 285 285 285 285 285 285 285 285 286 286 284 285 285 285 285 285 286 286 285 286 285 285 286 287 288 290 290 291 292 291 288 287 287 287 287 287 287 287 287 286 286 285 284 284 283 285 287 287 285 283 282 282 282 282 282 282 284 286 287 287 287 287 287 287 287 287 287 286 285 283 281 280 278 277 277 276 275 275
285 285 285 285 285 285 285 284 284 284 284 284 285 285 285 285 285 284 284 285 286 286 285 285 285 284 284 285 285 285 286 286 289 290 290 291 290 287 286 286 286 286 286 287 286 286 285 285 285 284 283 283 285 287 287 285 282 282 282 282 281 281 281 283 284 285 287 287 287 287 287 287 287 287 287 286 285 283 280 277 278 277 276 276 274
285 285 285 285 285 284 284 284 283 283 284 284 284 284 285 285 285 284 284 283 284 285 284 284 284 284 283 284 284 284 285 285 288 289 289 290 289 287 286 285 285 286 286 286 285 284 284 284 284 284 283 283 286 287 287 285 283 282 282 282 281 280 281 283 283 283 283 283 284 284 284 285 285 284 285 286 285 283 281 280 278 278 276 276 274
284 284 284 284 284 283 283 283 283 283 283 283 284 284 284 283 283 283 283 283 283 283 283 282 282 283 283 282 282 283 283 283 284 288 289 289 290 287 285 285 285 285 285 285 283 282 282 282 283 285 285 285 286 287 287 286 283 283 283 282 281 281 282 283 283 283 282 282 282 282 282 282 282 282 282 283 283 282 282 281 280 279 277 275 274
283 283 283 283 283 283 283 282 282 282 282 282 282 282 282 282 283 282 282 282 281 282 282 281 281 282 282 281 281 281 281 282 282 286 287 289 290 289 286 285 285 286 285 284 283 282 281 281 281 284 286 286 286 287 287 286 285 283 283 283 283 284 283 282 283 283 281 281 281 281 280 280 280 279 279 279 279 279 280 280 279 279 277 275 274
282 282 282 282 282 282 282 282 281 281 281 281 280 281 282 281 281 280 280 280 280 280 281 281 280 281 281 280 279 280 280 281 281 283 286 287 289 289 287 285 286 286 285 284 282 281 281 280 281 283 285 286 286 287 288 287 286 284 284 286 286 285 282 282 282 281 281 280 280 279 279 278 278 277 277 277 276 276 276 277 278 277 276 276 275
281 281 281 281 281 281 281 281 281 281 280 280 279 279 280 280 280 280 278 278 279 279 280 280 279 280 281 281 279 279 279 279 282 282 284 286 288 288 289 288 288 286 285 283 282 281 281 281 281 283 285 285 286 287 288 287 286 285 286 287 287 285 283 281 281 280 280 279 279 278 278 278 277 276 276 275 275 275 275 275 275 275 274 273 272
281 280 280 280 280 280 281 281 281 280 279 278 278 278 279 280 279 280 278 278 278 279 280 280 278 279 280 281 280 278 277 278 280 282 283 285 287 288 288 289 289 286 285 284 283 281 280 280 281 284 285 285 286 287 287 287 285 286 287 287 286 284 281 280 280 279 279 278 278 277 277 277 277 276 275 274 274 274 273 273 272 272 271 270 270
280 279 280 280 280 280 280 280 280 280 279 277 277 279 279 279 279 280 278 277 278 278 279 279 279 279 279 280 281 279 276 277 277 280 283 284 285 287 287 288 289 288 285 283 281 281 281 282 283 284 285 285 286 287 287 286 286 286 286 286 284 282 281 280 279 279 278 277 277 278 277 277 277 276 275 274 273 272 270 268 268 267 266 265 264
279 279 279 279 279 279 279 280 280 279 278 277 277 277 277 278 278 279 279 278 278 278 278 279 279 279 279 279 280 280 278 276 277 277 280 282 283 285 286 287 287 287 285 282 282 282 283 283 283 284 284 285 285 285 285 285 286 286 286 285 283 282 281 280 279 279 278 277 277 277 277 275 274 274 274 273 272 270 269 268 267 264 265 265 263
278 278 278 278 279 279 278 279 279 279 279 277 277 276 276 276 276 277 278 278 278 278 278 278 279 279 279 279 279 279 278 277 277 277 279 280 282 283 284 285 286 285 283 281 282 282 282 282 283 284 284 285 285 285 285 285 285 285 284 283 282 281 281 280 279 279 278 277 277 276 274 273 272 272 272 271 270 269 269 268 267 264 263 263 264
277 277 278 278 278 278 278 278 278 278 279 278 278 278 277 276 276 277 278 279 278 278 279 279 279 279 279 279 279 279 278 277 277 278 279 281 282 283 284 285 284 283 281 281 281 281 281 282 283 283 283 283 284 284 284 284 284 283 282 281 280 280 280 281 280 278 278 277 275 273 271 272 272 272 271 270 269 267 268 267 265 262 263 264 261
276 276 277 277 277 278 278 278 278 278 278 278 278 278 278 278 278 278 279 279 279 280 279 280 281 280 280 279 279 279 280 279 279 282 282 283 283 283 283 283 283 282 281 282 281 281 281 280 280 281 281 281 282 282 283 283 282 281 280 279 279 278 278 277 277 275 274 274 273 272 271 272 271 271 270 268 267 266 266 266 264 264 261 262 263
275 275 276 276 277 277 277 278 278 278 278 278 278 278 279 281 280 278 279 280 282 283 283 280 281 280 279 280 280 280 281 281 283 283 283 284 284 285 285 285 284 282 282 283 281 280 279 279 279 280 280 280 281 281 281 281 278 278 277 278 277 277 277 277 275 273 273 274 273 272 271 271 270 269 269 268 265 265 266 268 263 264 263 262 260
274 275 275 275 276 277 277 277 277 278 278 277 277 277 277 279 282 283 283 281 282 283 284 284 284 284 282 280 281 284 284 285 284 284 284 284 284 285 286 285 285 284 284 282 280 279 278 278 278 279 280 280 280 280 280 278 277 276 276 276 276 276 276 275 273 272 272 272 272 272 271 270 269 268 267 266 266 265 264 262 264 265 264 261 260
271 272 273 274 276 277 277 277 278 278 278 278 278 277 277 277 278 282 283 283 284 284 284 284 284 284 284 284 282 281 283 284 284 283 283 284 284 285 286 286 285 285 284 283 279 278 278 278 278 279 279 280 279 278 278 277 277 276 275 274 274 274 274 273 272 272 271 271 270 269 269 268 267 267 266 265 265 264 264 263 263 262 259 260 260
270 271 273 274 276 277 277 277 277 278 278 278 278 279 278 278 278 278 281 284 284 284 284 284 284 284 284 284 284 284 283 283 283 283 283 284 284 285 286 286 285 285 285 281 278 278 278 278 278 279 279 279 278 278 278 277 276 276 276 275 273 273 272 272 272 271 270 270 269 268 267 266 266 266 265 265 264 262 263 263 260 260 260 259 256
268 269 270 272 273 274 276 276 277 277 278 278 279 279 279 279 279 279 279 279 281 282 284 284 284 284 284 284 284 284 284 284 283 283 283 284 284 285 285 284 285 285 284 280 279 278 278 278 278 279 279 279 277 277 277 277 276 275 275 274 272 271 269 270 270 269 269 269 267 266 265 265 265 265 264 263 263 263 263 261 260 260 258 258 257
268 269 271 272 273 274 275 275 276 277 277 278 278 279 279 280 280 279 279 279 279 279 279 280 283 284 282 283 284 284 284 284 283 283 283 284 284 285 285 283 282 282 282 280 279 278 278 278 278 278 278 277 276 276 276 275 275 274 272 270 269 268 268 269 268 268 267 266 265 264 264 264 265 265 263 262 261 261 261 258 256 259 257 252 252
269 270 271 272 273 274 274 275 276 276 277 277 278 279 280 280 279 280 280 280 279 279 279 280 280 282 283 283 283 284 284 283 283 283 283 284 284 285 281 280 280 280 280 279 278 278 278 278 278 277 277 276 276 275 275 274 273 273 271 270 268 268 268 267 266 265 265 265 264 264 264 263 263 263 262 263 263 262 259 258 255 254 253 251 251
269 270 271 272 273 275 275 276 276 276 277 277 278 278 279 279 280 280 280 279 279 279 280 280 280 279 281 281 282 283 284 283 283 283 283 283 284 284 281 280 280 280 279 277 277 277 277 277 277 276 276 275 275 274 273 273 272 270 270 269 268 268 267 266 265 264 264 263 263 263 263 262 262 262 262 261 257 256 254 253 253 254 253 253 254
267 268 269 271 271 272 272 273 274 275 276 277 278 279 279 279 279 280 279 279 279 279 279 279 280 279 278 279 282 281 282 283 283 282 282 283 283 282 281 280 280 279 277 276 276 276 276 275 276 275 274 274 273 273 272 271 270 269 268 267 267 266 267 266 265 264 263 262 262 262 261 259 259 260 260 260 257 254 252 253 253 254 254 255 253
264 266 267 268 269 269 270 272 273 274 276 277 278 278 278 279 279 279 279 279 279 279 279 279 279 278 279 280 280 281 280 279 279 278 280 281 282 282 281 280 279 277 276 275 274 274 274 273 273 273 273 273 272 271 271 269 269 268 267 266 266 266 265 264 264 263 262 261 259 259 259 257 256 257 258 256 253 253 252 252 252 253 254 253 253
262 262 264 266 267 268 270 271 273 273 275 276 277 278 278 279 279 279 279 279 279 279 279 278 278 278 279 280 279 280 278 278 278 279 279 280 281 281 280 279 278 276 275 274 274 274 273 272 272 272 271 271 270 270 269 268 267 266 266 266 266 265 264 264 263 263 262 260 258 258 257 255 254 253 252 253 253 252 252 252 252 252 252 251 251
261 262 264 265 267 267 269 270 271 272 274 276 277 277 278 278 279 279 279 279 279 278 278 278 278 279 279 279 281 281 279 278 278 278 279 280 280 279 279 278 276 275 274 273 273 272 272 271 271 270 270 270 269 268 268 267 266 266 266 266 266 265 264 263 263 262 261 259 258 257 256 254 253 254 254 252 255 253 251 251 251 251 251 251 250
261 261 262 264 265 266 267 269 270 272 272 274 275 276 277 277 278 279 278 278 278 278 278 278 278 278 278 280 281 281 280 279 278 278 278 277 277 278 276 276 275 275 274 273 272 270 270 270 269 269 268 267 267 267 266 266 266 267 266 266 265 263 262 262 262 260 259 257 257 256 254 253 253 254 255 255 252 251 251 250 250 250 250 250 250
261 262 262 263 264 264 265 266 268 268 270 271 272 273 275 277 277 278 278 278 278 277 277 277 276 275 276 279 280 281 278 277 273 274 273 272 272 272 273 273 273 272 272 272 271 270 269 269 268 267 267 267 267 266 267 267 266 266 266 265 263 262 261 258 258 258 258 257 256 254 254 254 255 255 254 253 251 251 251 251 250 249 250 249 249
261 261 262 262 263 264 265 266 267 268 269 270 272 273 274 275 276 276 277 277 277 276 276 276 275 274 274 275 276 275 273 272 272 271 269 268 267 266 265 265 265 266 268 268 268 268 268 267 266 265 265 265 265 266 266 266 266 266 265 264 262 261 259 257 257 257 256 256 255 254 254 254 254 254 253 252 250 251 250 249 249 249 248 247 247
261 261 261 262 262 263 264 265 266 266 268 269 270 272 273 274 275 276 276 277 276 275 275 274 273 273 271 271 271 271 270 270 268 267 267 267 265 264 263 264 264 263 262 264 266 266 266 264 261 259 258 259 260 261 262 262 264 265 264 264 261 260 260 259 258 257 257 256 255 254 254 254 254 253 253 252 251 251 250 249 249 251 249 248 247
260 261 261 261 262 262 263 264 265 266 267 268 269 270 271 273 274 275 275 275 275 274 274 273 272 271 270 270 269 268 268 267 267 267 265 263 262 262 262 262 262 262 261 262 263 264 263 261 261 259 258 258 258 258 258 259 259 260 261 262 262 261 259 258 257 256 256 256 256 255 254 254 253 253 253 252 251 250 249 248 247 249 249 249 248
260 261 261 261 261 262 263 264 264 265 266 268 270 271 272 272 273 274 274 274 274 272 272 272 271 270 270 269 268 267 267 266 266 264 264 263 263 262 261 260 259 259 260 261 262 262 262 262 262 261 259 258 258 257 256 256 256 256 257 257 256 256 255 255 255 256 256 256 256 255 255 254 253 252 253 251 249 250 249 249 249 249 248 248 248
260 261 261 262 262 262 263 264 264 266 267 268 269 270 271 272 272 273 273 272 272 271 271 271 270 269 268 267 266 266 265 265 264 263 262 261 261 261 261 260 260 259 259 259 260 260 261 260 260 258 257 257 257 256 255 255 255 255 254 255 254 254 254 254 254 254 254 254 255 255 255 254 253 251 251 251 250 249 249 249 248 247 246 247 247
261 261 261 262 262 263 264 264 265 266 266 267 268 269 270 271 271 272 271 270 270 270 270 269 268 267 266 264 263 263 262 261 261 260 259 259 260 260 261 260 259 260 259 258 258 258 258 258 258 258 258 258 257 256 255 255 255 254 254 254 256 256 255 254 253 253 253 253 253 253 253 253 252 250 251 250 250 249 249 247 247 247 246 246 246
260 260 261 261 262 262 263 264 265 266 267 268 268 269 269 269 270 269 269 268 268 268 268 267 265 264 263 262 261 261 261 261 260 259 259 259 259 259 259 259 258 258 257 257 256 256 257 257 257 257 257 256 256 256 255 255 254 254 254 257 259 257 255 254 253 253 253 252 253 252 252 251 250 249 249 249 248 248 247 247 246 247 246 245 245
259 259 260 260 260 261 261 261 262 263 264 265 266 267 267 268 268 267 266 267 267 266 265 264 263 262 262 262 261 261 261 261 260 259 259 259 259 259 259 258 257 257 256 256 255 255 255 255 255 255 255 254 254 254 254 254 253 253 256 260 259 257 255 254 253 253 252 251 251 251 251 250 249 248 247 246 246 246 247 247 246 246 245 245 245
Wind_Speed
4 4 4 4 4 5 6 4 5 5 5 5 7 7 6 5 5 6 4 7 5 6 7 8 8 8 8 8 8 8 8 8 7 7 8 9 8 7 6 7 9 9 7 8 8 9 10 10 11 11 9 10 9 8 9 10 9 9 8 8 10 9 10 11 13 13 2 1 2 4 5 8 7 8 8 8 7 8 7 7 7 6 6 6 5
5 5 4 4 4 5 5 4 4 4 5 5 7 7 6 5 5 5 6 6 5 7 7 7 7 7 8 8 8 8 8 8 7 7 8 9 9 8 8 8 8 9 7 9 8 8 8 10 11 10 9 11 9 9 9 8 9 9 9 10 11 11 10 11 13 11 10 3 2 2 4 5 6 6 9 9 8 7 8 7 6 7 6 6 5
6 5 6 5 6 5 5 5 4 4 5 6 6 7 6 5 5 6 7 6 5 7 7 7 7 7 7 8 8 8 8 8 7 8 9 10 10 8 8 8 10 10 10 10 9 8 9 10 10 10 8 9 10 10 9 10 10 11 12 10 11 11 10 12 10 11 11 6 5 5 5 4 3 5 6 5 6 8 8 7 7 5 4 6 5
7 6 6 7 6 5 5 5 5 5 5 6 6 7 6 6 4 6 7 5 7 6 6 7 6 7 8 8 8 8 8 7 7 9 10 10 9 9 8 9 9 10 10 10 9 9 10 10 11 10 9 11 10 10 9 9 9 10 11 10 11 13 12 10 12 10 6 6 4 5 5 6 3 5 5 6 8 7 7 6 6 6 5 5 5
6 6 5 7 7 6 6 5 5 6 7 6 7 7 6 6 5 6 6 7 7 6 6 5 7 7 9 9 9 8 9 8 8 9 9 8 9 9 9 9 9 10 10 10 10 10 10 11 11 10 9 11 10 10 9 11 10 10 11 10 11 11 9 9 10 8 7 8 5 2 5 3 2 6 8 8 5 4 4 5 6 6 6 5 4
6 7 6 6 8 7 6 6 5 6 7 7 7 6 6 5 6 5 6 8 7 7 7 6 7 9 8 9 9 9 8 8 9 10 9 9 9 9 9 9 9 9 9 9 9 9 10 11 10 10 10 11 12 10 10 12 11 11 12 11 11 9 9 8 8 8 8 6 8 5 4 6 4 4 6 7 9 6 5 5 5 4 5 4 2
5 5 5 4 5 6 6 6 6 6 6 7 6 6 6 6 5 7 6 7 7 8 7 8 7 8 9 8 9 9 8 8 9 9 9 9 9 10 10 10 9 9 9 10 9 9 10 10 10 10 11 11 11 11 11 11 10 12 12 12 10 8 9 8 8 8 8 7 4 7 7 4 6 7 4 5 5 7 10 7 4 2 2 5 4
5 4 4 4 4 6 6 5 5 6 6 5 6 6 6 6 6 6 5 7 8 8 8 8 7 6 8 9 9 7 8 8 9 10 9 9 9 10 10 10 9 9 9 9 9 9 10 10 10 10 11 11 11 11 11 11 10 10 9 8 8 9 9 8 8 8 8 7 8 8 6 7 4 4 6 6 6 3 2 4 9 6 4 4 4
7 7 7 6 6 5 5 5 5 5 5 5 6 6 6 6 5 5 5 6 6 7 7 6 7 8 8 8 9 8 9 10 9 10 10 10 10 11 10 10 10 10 9 9 9 9 9 9 10 9 11 13 15 14 13 13 11 10 9 9 9 10 9 8 9 9 8 7 6 6 8 7 7 9 8 8 9 9 6 5 4 5 5 4 2
6 7 7 7 7 7 6 6 6 5 5 6 6 6 6 6 5 6 6 6 6 6 6 6 7 9 9 9 8 8 9 9 11 16 14 11 10 9 9 10 9 9 9 9 9 9 10 9 10 13 15 16 16 17 16 16 16 13 10 11 11 10 10 9 9 9 8 8 8 9 9 8 8 9 9 6 5 7 8 6 7 5 6 4 1
7 7 8 7 7 6 6 7 7 7 7 6 6 6 6 5 5 6 6 6 7 6 6 7 8 8 9 9 9 9 9 9 13 16 18 18 11 8 9 9 8 9 9 10 11 10 9 9 8 10 11 12 12 16 16 16 16 16 12 13 13 13 11 10 9 9 9 9 7 8 8 8 8 7 7 7 6 9 9 7 6 7 7 7 5
7 8 7 7 7 8 7 8 8 9 8 8 8 7 7 6 6 6 6 7 6 5 6 8 8 8 8 8 9 10 10 11 15 17 17 17 15 11 9 9 9 9 9 10 10 9 9 8 8 7 8 9 9 9 12 14 14 14 13 12 12 16 14 13 12 9 9 9 9 9 10 10 9 8 7 7 8 6 6 7 8 8 7 6 4
6 7 7 7 8 8 8 9 9 9 9 9 8 8 8 8 8 8 8 7 5 6 8 7 8 7 7 9 11 11 11 13 15 17 16 17 17 15 10 10 9 10 9 10 10 10 8 8 8 7 7 10 8 7 6 7 11 14 12 12 13 13 12 7 10 15 12 10 11 10 10 10 11 10 10 10 9 9 7 6 6 6 5 5 4
6 7 7 8 8 7 7 8 9 9 8 8 8 8 8 9 8 7 8 7 7 8 7 9 8 8 8 10 11 11 11 11 15 16 16 17 18 15 10 10 10 10 10 9 9 9 9 8 8 7 6 6 7 7 6 7 7 7 7 8 9 9 9 8 7 7 11 11 12 12 9 9 11 10 9 9 11 10 9 8 7 6 6 5 4
7 7 7 7 6 7 8 7 8 8 8 8 8 8 8 9 8 7 7 8 8 9 9 8 9 7 8 9 10 12 11 12 14 16 16 17 17 15 10 9 9 9 9 9 9 9 9 9 8 8 7 7 7 9 8 8 8 9 9 8 8 7 8 9 9 7 7 5 9 10 10 8 8 10 10 9 9 8 8 9 9 7 6 5 5
6 6 8 8 8 7 8 9 8 8 8 8 8 9 8 8 9 9 8 8 7 7 8 7 10 10 9 8 9 13 11 12 14 15 16 17 18 11 9 9 10 9 9 9 8 8 8 8 8 8 7 8 9 14 11 9 10 10 9 8 8 7 7 5 8 7 8 7 6 8 8 8 10 11 10 9 7 8 8 8 8 7 7 5 5
10 10 10 11 11 11 10 11 12 11 10 11 11 10 9 10 8 5 8 8 8 8 8 9 8 8 9 8 10 12 12 10 13 15 16 17 13 9 9 9 9 10 10 8 8 8 7 7 8 7 7 8 11 16 16 12 9 11 10 10 9 8 6 6 11 13 12 12 14 16 17 17 17 18 17 16 11 10 9 9 7 7 7 6 5
10 10 11 11 11 11 11 10 12 12 12 12 12 12 9 8 7 5 8 10 11 9 7 9 8 7 9 10 10 11 13 9 12 15 16 17 14 10 8 9 9 9 9 8 7 7 8 11 10 8 8 8 14 18 18 14 11 11 12 12 12 10 8 8 8 9 16 17 19 21 20 19 19 19 18 17 17 11 10 10 9 8 7 7 6
10 11 12 10 10 10 9 9 9 10 11 11 10 11 11 10 9 7 7 7 10 9 8 9 10 8 8 10 11 12 12 11 11 14 15 16 13 9 8 8 9 9 8 8 6 7 6 8 13 10 9 10 18 19 20 15 12 12 12 12 13 12 10 11 11 12 11 11 11 12 12 14 11 9 11 17 15 10 6 7 8 8 8 6 6
8 8 9 9 9 9 8 9 10 9 11 12 11 9 9 10 9 8 8 6 9 9 8 8 11 12 8 8 9 9 11 11 8 14 15 16 17 10 7 8 10 9 8 8 7 6 6 6 9 14 15 16 18 20 22 19 12 11 11 11 11 11 9 10 9 10 9 10 9 9 10 8 8 7 6 7 8 7 6 6 7 7 6 6 6
7 8 9 10 10 10 9 7 10 11 8 9 11 11 8 9 10 8 9 9 7 9 10 9 10 12 10 8 9 9 8 10 10 11 14 16 17 15 9 10 9 8 8 7 7 7 6 6 6 12 17 18 19 20 23 22 17 12 12 11 11 11 13 10 11 13 10 10 10 9 8 7 7 7 7 6 6 5 5 4 5 5 6 6 6
7 8 9 10 11 11 11 11 8 9 9 8 10 12 10 7 8 9 8 8 10 12 10 9 9 12 11 9 8 10 8 11 10 11 14 16 16 18 12 10 9 8 9 8 7 6 7 7 7 11 18 18 19 20 24 23 21 10 10 12 16 20 13 9 9 9 9 9 9 8 8 8 7 7 7 6 5 5 5 5 5 4 3 5 7
7 8 9 10 10 11 11 11 11 9 9 8 9 12 12 10 10 8 7 9 10 11 11 9 8 11 12 10 8 8 8 8 12 10 12 15 16 17 17 12 11 10 9 10 9 8 5 6 6 12 17 18 19 21 23 24 18 10 16 19 19 23 16 10 10 10 9 9 9 9 8 8 8 7 7 7 6 6 6 6 5 6 6 6 5
8 10 10 10 11 11 11 11 10 9 9 9 9 11 12 11 9 9 7 8 9 10 11 9 7 10 12 13 10 6 6 7 8 12 11 14 16 18 18 18 14 11 9 8 5 5 6 6 7 15 17 18 19 21 22 22 12 17 19 20 22 20 10 9 9 10 10 9 9 8 8 7 7 7 7 7 7 7 7 6 7 7 7 6 7
10 11 12 12 12 11 11 12 11 10 10 7 9 11 12 10 10 10 7 7 8 9 11 9 9 10 11 12 12 9 6 7 7 8 13 13 16 17 18 18 16 15 10 6 5 6 7 11 13 17 17 18 20 21 20 20 19 20 21 20 19 10 10 10 10 10 10 10 9 9 8 8 8 7 8 8 8 8 8 6 6 6 7 9 8
12 12 12 12 12 12 12 14 12 10 10 8 8 9 10 10 10 11 9 8 8 9 11 10 10 10 11 11 11 11 8 6 7 6 6 9 11 15 17 16 16 16 13 8 10 12 14 16 17 18 18 16 13 11 10 12 18 17 18 18 11 10 10 10 10 11 10 9 9 10 8 7 7 8 9 9 9 8 8 7 7 6 7 8 7
13 12 12 11 12 11 11 11 12 12 10 8 8 8 8 8 9 10 10 9 9 9 10 10 11 11 11 11 11 10 9 7 6 5 6 7 8 9 10 11 13 12 9 8 10 10 12 12 10 13 10 15 14 11 9 11 11 11 11 10 9 9 9 10 11 10 9 9 8 7 7 7 7 9 8 8 8 7 7 8 7 6 6 6 8
11 13 14 11 11 11 11 14 14 11 11 10 9 10 9 8 9 11 11 10 9 10 10 10 11 11 10 11 10 10 10 7 6 6 8 7 7 7 7 6 6 7 7 7 7 7 7 8 10 9 8 9 10 8 8 9 9 8 9 8 8 8 8 8 7 6 6 6 7 7 7 8 8 8 7 7 7 6 6 7 7 5 4 5 5
12 13 13 10 11 9 9 10 10 11 12 12 10 9 11 11 11 12 12 10 9 11 12 12 12 9 9 10 10 11 11 9 8 7 8 9 8 7 7 7 7 6 7 9 6 4 5 6 7 8 10 10 10 9 9 9 7 8 9 8 8 8 8 8 9 8 8 9 9 10 9 8 7 7 8 7 7 7 5 6 5 8 2 2 5
12 13 11 11 11 10 10 10 10 11 11 12 12 13 12 16 13 12 14 14 16 20 17 14 13 9 9 10 9 10 12 9 5 10 13 14 15 15 11 9 10 8 11 16 11 7 7 7 8 8 8 8 9 8 10 8 8 8 7 8 8 8 8 7 8 8 7 8 8 9 8 8 8 8 8 8 5 5 4 6 5 5 5 4 4
12 13 12 10 11 11 11 12 11 10 11 11 11 12 14 13 16 21 22 22 21 21 21 24 25 22 15 12 13 18 18 19 16 12 12 14 15 16 16 15 16 16 17 13 10 9 9 9 9 9 9 9 9 7 9 9 9 8 7 7 7 9 8 8 8 7 8 8 7 7 8 8 9 8 8 7 8 6 4 3 5 5 5 5 4
13 14 13 12 13 12 11 12 12 12 12 11 11 11 12 14 16 14 16 20 22 22 21 23 23 22 22 20 15 11 14 16 15 13 13 14 15 16 18 18 18 19 20 18 9 8 8 8 8 9 9 9 7 6 8 9 9 9 8 8 7 7 8 8 8 8 8 8 8 8 8 8 8 7 7 7 8 7 6 5 5 5 4 3 3
14 14 14 14 12 12 12 10 11 10 12 13 13 12 12 12 14 16 15 12 17 20 21 22 24 23 22 22 23 20 16 14 15 15 15 16 17 17 18 21 21 21 22 13 8 8 8 8 9 8 9 9 7 8 8 9 9 9 9 9 8 6 6 7 8 7 7 7 8 8 7 7 8 8 8 8 8 6 6 5 4 4 5 5 2
14 14 13 14 14 13 11 10 10 11 10 11 10 13 13 12 13 13 14 15 13 12 17 20 22 23 23 22 21 21 22 18 16 16 16 17 17 17 18 15 20 23 19 10 9 8 8 8 7 7 8 6 6 7 7 8 8 8 7 6 7 7 7 7 7 7 7 7 8 7 8 8 8 8 7 6 5 6 6 5 6 6 5 6 6
12 16 23 18 10 12 11 13 11 11 11 11 12 12 14 13 12 13 13 13 13 14 12 9 13 19 17 15 17 20 21 19 17 16 17 17 17 18 19 12 12 12 12 8 8 8 8 9 8 8 8 7 7 7 7 7 7 7 7 8 7 7 8 7 7 7 8 7 7 7 7 8 7 6 8 7 6 6 6 6 6 6 6 5 5
12 10 12 14 12 11 12 11 12 11 12 11 12 11 11 13 14 13 13 13 13 13 13 11 8 9 18 18 17 16 19 20 18 17 17 18 19 19 12 10 10 10 10 9 9 8 7 7 7 7 7 7 7 7 7 8 7 7 7 9 9 8 8 7 7 7 7 7 7 8 7 6 6 6 6 6 7 7 6 7 6 5 4 6 5
12 11 11 10 11 9 11 10 12 13 16 15 13 13 12 13 13 13 12 13 13 12 12 11 8 7 8 9 13 15 19 18 19 19 18 18 21 15 10 9 10 10 8 8 8 7 7 7 7 7 7 8 7 7 7 7 7 7 6 6 7 8 7 7 8 7 8 7 7 7 7 7 6 6 7 6 5 5 5 5 5 5 6 6 6
14 12 12 11 13 14 14 13 15 22 17 13 11 12 13 13 13 13 13 13 13 12 12 11 9 10 10 9 9 8 10 15 18 16 15 15 13 11 10 9 9 9 8 8 8 8 7 7 7 7 7 7 8 7 7 7 7 8 8 8 7 7 10 9 8 8 7 7 7 6 7 7 7 6 6 7 7 6 5 6 6 5 4 6 6
12 20 26 28 21 16 15 16 15 14 13 12 12 12 12 13 13 12 12 11 12 12 11 11 10 10 10 6 6 7 8 7 8 8 9 9 10 9 8 8 7 7 8 8 8 8 8 7 5 6 7 7 7 7 8 8 8 8 8 9 8 8 9 7 8 7 7 6 7 6 7 8 6 5 6 7 7 6 7 6 6 6 7 6 6
13 14 17 24 17 16 16 16 15 15 15 13 12 11 12 12 13 13 12 12 12 12 11 11 11 10 8 6 7 7 8 9 9 9 9 9 9 9 9 8 8 8 9 8 8 8 8 7 7 7 7 7 7 7 7 8 8 8 8 9 9 9 8 8 8 7 7 7 8 6 7 8 6 5 5 6 7 7 7 7 6 6 6 5 5
13 15 16 17 18 16 16 16 15 15 14 13 12 12 12 11 12 12 12 12 12 12 11 10 11 9 8 10 14 13 10 9 9 8 8 8 8 8 8 7 7 8 7 8 8 8 8 8 7 7 7 7 8 8 8 8 8 8 8 8 8 8 7 7 7 7 7 7 7 6 6 6 6 7 6 5 6 6 5 6 6 6 5 4 6
14 15 15 14 16 15 15 16 15 16 15 15 14 13 12 12 12 12 12 12 11 11 11 10 10 8 8 14 15 18 12 7 7 6 6 3 5 6 6 6 6 7 7 7 8 8 8 8 8 8 8 8 8 8 8 9 9 9 9 9 9 9 8 7 7 7 8 6 6 7 7 6 7 5 6 6 6 6 6 6 6 6 6 6 5
15 15 15 15 15 15 15 16 15 15 15 15 14 13 13 13 13 13 13 11 11 11 11 11 8 5 7 12 14 16 9 6 5 6 5 4 4 5 6 7 6 6 7 7 7 8 9 9 8 7 8 8 9 9 9 9 9 9 8 9 8 8 9 8 7 7 7 7 7 7 7 7 7 6 6 6 6 6 6 6 6 6 5 5 5
14 15 16 16 15 15 15 14 15 16 15 17 18 15 13 12 13 13 13 12 11 10 10 9 7 6 6 5 6 5 5 5 5 6 6 6 6 6 6 6 7 7 7 7 7 7 8 9 8 7 6 6 6 6 7 7 8 9 9 9 9 8 10 11 9 8 8 8 8 7 7 7 7 6 7 7 7 7 6 5 5 6 6 5 5
13 13 14 14 14 14 15 15 15 16 18 16 14 13 13 12 12 12 12 12 10 9 9 7 6 6 4 5 5 6 6 5 4 5 6 7 7 7 6 6 8 9 9 7 6 7 8 9 12 12 10 7 6 6 6 5 5 7 8 9 9 8 8 9 9 8 8 9 8 8 7 7 7 7 7 7 6 6 6 6 6 6 5 5 5
13 13 14 14 15 15 15 13 14 14 15 14 14 13 12 11 12 12 12 11 9 8 7 6 6 6 6 6 5 4 5 6 6 6 5 6 7 8 7 6 6 9 9 8 7 8 8 8 9 9 10 9 7 6 6 6 6 6 6 6 7 7 6 7 7 8 8 8 9 8 8 7 7 7 7 7 6 6 6 5 5 6 6 6 6
13 12 13 14 14 15 15 15 14 14 14 14 12 11 10 11 11 10 9 10 9 6 7 6 6 7 6 6 6 5 5 6 6 6 6 7 7 6 5 5 6 7 6 5 6 7 8 8 8 9 9 8 8 9 8 7 6 6 6 6 7 7 7 7 7 8 7 7 8 8 8 8 8 7 7 7 6 6 5 7 7 6 5 5 6
12 12 12 13 14 14 14 13 14 16 14 13 13 12 11 10 10 10 8 7 7 5 6 5 5 5 4 4 3 3 4 4 5 4 5 5 5 6 6 6 5 6 7 6 7 7 7 8 9 8 9 9 9 8 8 8 7 7 6 6 6 7 8 9 7 7 7 7 7 8 9 8 7 7 7 7 6 7 6 6 4 4 5 4 5
12 12 12 13 12 12 12 12 13 12 13 13 14 13 11 11 10 9 7 5 5 5 4 4 4 4 4 4 4 4 4 3 5 5 5 6 6 7 7 7 7 9 9 9 9 10 10 10 9 8 8 7 7 8 7 7 7 7 7 6 8 14 12 10 7 7 7 7 7 7 7 7 8 7 7 7 7 6 6 5 5 5 4 4 4
12 12 12 13 13 13 12 12 12 11 10 10 10 11 10 10 9 6 5 4 3 3 2 3 4 4 4 5 4 4 5 6 6 5 5 5 6 7 8 8 6 6 6 7 6 9 10 10 10 8 8 7 7 7 7 7 7 7 6 8 13 13 11 11 10 10 8 6 7 7 7 7 7 7 7 7 7 7 7 6 5 7 5 5 5
12 12 12 11 11 11 11 11 11 11 10 9 9 9 9 8 7 4 3 2 1 1 2 3 4 4 4 4 3 5 6 6 5 5 6 7 7 7 8 8 6 6 7 7 7 6 8 9 9 9 9 8 8 8 7 8 7 6 8 13 14 12 11 9 8 8 9 6 7 7 8 8 8 8 7 6 7 7 8 6 7 6 6 6 5
Wind_Direction
293 275 268 260 256 261 260 256 257 248 253 243 247 251 252 243 243 244 254 240 224 225 221 219 218 218 221 224 223 224 224 225 217 218 224 232 231 231 230 226 232 239 233 232 228 227 229 231 230 228 220 223 220 219 218 216 210 214 208 209 217 209 208 221 233 248 202 304 107 155 149 148 176 185 179 175 166 170 163 167 156 162 164 164 157
330 315 299 284 278 280 276 270 266 264 256 258 254 258 257 248 247 251 240 245 214 235 235 232 224 222 225 229 224 223 223 222 215 213 224 229 231 223 227 225 233 239 229 237 229 228 228 231 233 232 222 226 219 221 214 214 210 212 211 209 215 214 209 210 232 236 233 120 129 87 129 171 164 181 182 174 175 157 158 153 156 169 168 152 149
325 326 322 321 304 299 303 300 287 272 268 266 263 261 261 258 246 243 248 250 234 233 238 234 231 228 232 235 232 229 223 221 213 213 224 226 228 228 223 221 229 234 232 234 231 224 227 230 235 231 224 225 221 223 212 215 210 212 216 209 216 219 209 213 220 230 230 202 155 158 156 159 151 174 164 157 153 160 161 165 159 151 149 148 145
330 331 326 313 309 314 309 303 302 284 273 268 268 265 261 258 243 241 250 250 247 242 236 240 235 231 236 238 235 234 231 225 221 220 224 222 225 229 225 226 228 232 234 235 229 223 226 230 233 229 225 227 225 223 219 215 211 215 217 214 216 219 214 210 216 225 212 172 189 164 160 146 102 142 140 145 155 166 164 143 140 146 141 136 141
334 328 324 319 321 325 314 313 302 290 277 274 269 270 267 265 252 247 252 254 248 251 248 230 236 234 234 235 235 231 230 223 224 231 231 225 226 227 227 228 230 234 235 237 233 228 227 228 231 222 219 226 226 223 217 214 214 214 216 216 215 219 213 203 210 206 189 186 144 141 147 111 121 147 148 141 131 112 118 136 148 143 115 111 132
334 330 330 329 322 324 315 312 298 284 280 278 273 274 273 264 260 253 241 253 253 246 245 237 226 236 234 237 235 234 228 221 225 231 232 227 228 229 229 229 231 233 236 235 235 232 232 231 230 221 220 220 226 223 217 217 214 214 217 216 214 211 208 207 199 196 193 183 156 137 166 146 129 145 159 152 140 122 90 77 76 83 109 109 119
323 323 317 311 309 309 309 303 295 291 287 284 285 283 275 268 259 258 246 244 250 255 247 245 237 234 239 237 236 233 230 222 225 230 232 229 226 229 230 230 232 232 234 235 234 235 235 235 232 224 223 222 224 222 217 218 214 219 215 218 214 200 204 199 190 189 186 167 159 156 149 160 148 142 153 147 128 139 145 134 115 106 101 145 148
342 341 336 327 319 313 310 305 299 290 286 284 282 280 278 272 261 259 254 250 248 249 252 250 250 234 242 240 241 234 232 227 227 230 230 227 225 231 229 230 233 236 236 236 233 233 233 233 231 228 225 225 222 224 213 216 211 219 215 209 198 196 202 193 188 189 186 179 170 160 160 145 86 40 113 137 121 69 150 141 168 166 163 161 170
348 349 347 349 341 327 316 312 298 293 293 292 288 284 277 271 269 263 256 257 253 253 253 252 254 249 244 240 243 233 232 231 228 227 230 231 227 232 230 229 228 234 237 236 233 231 233 233 232 230 228 228 226 224 218 211 203 212 211 195 195 196 197 189 193 191 192 175 158 148 144 148 149 145 156 163 173 174 166 138 149 138 146 139 156
349 347 345 340 334 333 328 320 320 313 312 308 300 294 287 282 276 271 263 258 259 255 255 249 247 250 253 249 243 239 237 236 232 230 228 229 227 231 232 232 230 233 236 240 238 231 232 232 233 231 231 230 229 228 225 218 213 210 203 189 192 192 192 188 190 192 179 174 171 161 156 161 165 167 161 177 131 90 125 153 157 141 106 89 95
346 346 339 334 331 330 335 332 328 329 323 316 310 305 298 291 283 275 268 261 259 257 249 252 248 247 249 253 252 246 245 242 238 236 236 233 230 232 231 235 228 231 235 238 243 236 232 228 233 233 234 235 233 232 228 222 218 218 211 199 193 186 187 191 190 173 173 177 165 164 161 154 170 174 169 152 161 164 165 166 150 145 163 158 176
343 338 333 332 336 339 336 333 334 329 330 324 322 312 305 298 288 277 276 272 264 253 251 249 251 249 250 252 253 251 249 242 239 241 239 238 232 232 234 237 234 231 230 234 240 241 238 232 229 225 224 224 224 227 228 223 215 212 206 194 196 202 195 182 170 175 179 165 162 170 160 169 168 170 165 161 166 157 153 158 163 162 159 170 154
338 336 337 338 337 338 337 337 332 327 325 320 316 316 311 307 299 295 285 275 277 264 258 258 255 250 247 254 254 250 251 245 242 243 241 239 236 232 237 234 237 238 233 233 237 239 237 236 236 225 224 218 217 212 207 207 207 205 200 194 200 202 202 219 199 177 169 167 166 169 171 167 174 189 182 172 157 155 149 153 156 157 153 153 155
346 339 338 340 337 335 335 332 328 322 316 315 313 309 308 297 293 286 286 289 275 274 269 262 262 254 247 250 256 258 253 249 243 244 242 241 239 236 240 237 239 240 238 234 236 238 235 233 233 230 211 204 203 197 185 188 185 179 169 179 190 190 191 188 166 175 174 169 169 175 180 162 178 180 174 156 156 163 160 165 152 146 153 155 150
341 342 338 331 331 332 332 328 322 320 317 315 314 309 306 302 299 293 287 284 283 277 277 275 266 258 256 251 258 261 256 249 245 244 243 242 241 238 241 241 243 244 240 236 235 235 232 230 226 224 203 198 197 184 184 179 173 177 177 174 163 163 168 168 174 167 176 177 181 175 161 162 160 154 162 170 166 159 160 155 154 142 124 103 73
334 340 339 338 336 332 329 323 320 319 319 318 315 311 309 301 302 304 294 286 274 271 275 262 268 266 258 256 259 263 263 249 247 246 243 243 241 238 237 237 240 241 240 234 233 229 227 221 220 215 201 201 191 186 183 175 177 169 163 158 153 162 172 161 159 160 169 168 164 151 147 146 146 149 153 145 126 119 103 99 105 118 127 140 160
352 346 341 339 338 337 337 333 330 330 329 326 322 318 318 313 306 294 294 287 280 277 270 265 260 262 263 254 254 264 267 251 245 246 243 243 241 239 234 236 238 238 238 231 228 224 218 211 209 208 199 200 191 190 185 168 167 164 163 161 164 157 149 141 162 162 156 138 137 137 136 137 139 140 141 137 136 131 121 122 147 146 147 163 166
343 341 336 335 332 332 330 329 323 322 323 321 318 314 311 298 294 296 292 299 295 285 278 280 269 254 259 259 247 260 268 254 243 246 244 242 234 236 232 234 240 238 242 233 225 221 214 208 203 201 197 194 190 190 182 168 169 169 166 163 163 164 158 148 141 140 137 133 134 138 137 134 134 138 141 140 141 141 147 163 161 152 169 172 169
337 334 327 323 321 319 317 314 311 310 310 307 310 308 308 307 303 302 286 283 283 289 287 283 283 270 253 257 257 254 266 265 248 248 245 242 237 235 232 231 240 238 234 235 217 217 216 209 205 199 194 187 188 189 182 169 175 175 171 167 171 171 163 152 150 143 136 131 131 128 124 127 130 133 148 151 149 149 149 140 148 166 169 166 144
314 312 312 313 310 310 308 308 304 303 304 304 304 299 299 303 300 300 295 282 286 291 287 280 281 280 270 258 262 251 260 265 249 249 244 243 238 232 228 230 238 238 229 228 221 221 212 210 207 201 195 189 191 190 189 176 176 176 173 174 168 168 157 152 147 139 139 132 127 120 119 117 115 116 119 141 148 149 150 148 160 161 156 153 155
311 312 313 313 313 311 309 302 303 302 296 296 300 300 297 294 299 300 298 299 292 289 287 284 281 281 278 263 263 259 249 260 257 233 239 239 236 232 230 233 237 236 234 224 221 216 208 204 204 201 196 193 192 193 192 185 180 177 181 179 178 153 145 150 155 145 129 124 120 122 121 120 119 115 117 119 118 121 117 128 137 147 147 152 152
307 310 311 310 307 306 305 305 297 293 299 304 305 301 299 290 285 291 292 292 293 291 288 284 285 284 284 270 259 262 251 245 258 246 238 238 233 230 233 236 227 231 235 231 219 216 206 200 197 198 197 193 192 192 193 191 184 178 182 176 159 146 152 146 142 140 131 131 131 131 133 134 136 131 127 125 123 119 113 106 107 88 99 138 157
300 300 302 302 303 302 302 301 301 304 300 300 297 294 297 301 294 290 288 292 289 287 288 288 286 286 287 281 261 256 256 249 246 249 242 239 237 233 231 232 222 220 229 232 221 214 196 190 189 193 194 192 194 197 197 193 184 177 178 176 159 158 157 156 146 138 136 138 138 141 143 145 145 148 142 134 130 122 113 107 97 96 82 70 63
307 306 303 301 303 303 304 302 299 297 294 297 295 291 295 297 294 287 285 283 289 291 290 288 282 283 284 288 281 253 250 250 247 247 246 243 242 239 234 231 218 218 221 235 219 186 180 185 186 189 193 193 198 200 200 192 182 180 178 181 163 157 152 152 143 140 139 139 144 147 155 159 149 151 147 133 130 123 113 106 100 96 98 90 82
310 305 304 304 304 303 304 300 298 298 295 292 293 295 295 295 296 294 289 278 277 280 282 287 279 279 284 281 286 281 248 249 250 245 245 249 248 245 243 237 226 212 219 221 178 186 183 184 184 190 193 197 199 201 199 191 185 182 184 169 153 157 160 154 148 142 144 154 158 159 162 168 160 141 127 124 114 104 95 78 76 81 84 82 71
306 301 301 302 300 302 303 299 296 289 286 280 269 269 275 285 286 287 287 277 272 272 277 281 280 275 276 279 280 282 270 250 252 249 247 251 252 249 247 243 234 221 206 188 182 178 183 184 187 191 194 197 198 199 192 190 189 184 176 160 163 162 161 155 150 150 155 157 160 167 164 143 130 132 127 126 127 130 126 124 121 117 117 113 91
302 298 295 297 297 298 297 294 297 297 290 283 272 268 263 266 270 274 272 273 272 269 268 270 275 274 274 277 279 280 275 260 252 247 242 241 243 245 240 243 224 198 186 182 182 181 182 181 183 187 188 195 200 194 184 176 180 176 166 161 160 161 163 157 156 157 154 155 156 142 131 124 111 119 135 137 137 146 144 141 134 148 138 140 126
297 295 296 296 293 294 293 289 289 290 289 286 283 283 271 248 254 261 267 261 262 267 265 264 262 265 273 273 277 279 275 264 239 231 242 240 245 241 236 230 207 193 190 183 181 175 169 175 180 187 189 194 199 193 180 179 179 168 154 155 156 156 149 130 114 117 125 132 117 117 115 132 138 132 132 137 144 154 151 135 136 140 149 132 99
296 293 293 293 288 287 283 283 284 286 287 284 271 256 267 273 264 262 253 247 233 252 263 262 261 255 254 263 270 277 275 265 246 222 234 234 231 231 223 215 199 191 183 170 148 145 153 171 183 190 195 192 195 192 178 175 166 153 150 148 146 142 136 139 142 141 138 136 142 144 143 135 130 131 134 137 149 153 145 119 125 132 107 98 149
300 295 294 292 290 292 290 287 284 283 282 284 288 285 256 250 247 255 274 259 242 240 242 252 255 256 254 255 239 249 265 273 267 219 224 233 235 231 226 213 203 178 173 169 159 162 173 178 189 193 194 183 195 187 176 167 153 149 150 146 145 142 143 141 134 135 138 140 141 140 143 136 137 144 144 142 129 133 149 140 140 142 133 148 145
300 295 293 291 292 294 293 291 290 286 283 283 285 286 296 287 261 244 244 262 263 258 249 247 252 255 251 263 258 250 255 264 263 247 233 230 233 230 225 212 197 182 174 166 173 177 178 181 187 189 195 189 195 180 166 160 154 149 147 150 150 147 147 138 136 133 134 133 137 137 140 144 146 148 145 143 141 134 89 65 121 139 140 147 144
300 297 297 295 296 293 291 291 293 293 292 289 285 286 287 293 295 276 247 248 264 260 249 248 249 250 250 248 254 260 251 250 246 228 226 227 230 228 224 210 194 181 181 170 175 187 185 184 188 190 188 191 186 159 158 152 154 151 148 147 153 155 149 140 139 137 136 136 139 143 144 142 142 142 137 138 137 139 138 133 137 127 91 106 144
297 296 296 296 295 293 292 289 289 288 291 293 292 287 283 282 286 297 294 258 244 256 262 252 251 251 249 249 247 248 249 244 235 232 227 224 224 223 222 213 197 186 182 182 185 187 188 190 187 186 183 185 168 158 160 152 153 157 156 155 155 146 115 116 123 125 133 137 133 136 136 132 134 133 136 140 140 142 148 145 131 119 140 141 125
295 293 294 297 298 293 289 288 286 287 281 280 279 283 280 276 277 279 286 296 290 257 248 251 253 251 253 251 248 248 249 242 231 224 227 223 220 223 219 208 197 188 184 188 182 189 184 188 184 181 180 162 149 150 149 149 152 151 143 137 126 115 117 119 124 128 128 131 130 131 129 133 138 134 136 131 127 134 146 147 147 148 168 175 172
291 290 291 292 288 290 290 288 283 281 283 282 281 278 279 279 274 272 272 277 279 283 288 266 250 245 244 247 244 246 247 239 227 222 220 219 220 221 210 196 194 195 194 183 184 184 183 182 176 170 167 155 155 157 152 144 142 146 143 133 118 112 117 129 131 130 128 125 125 131 134 136 138 135 139 138 136 142 150 146 163 173 163 163 148
289 284 289 290 287 279 278 280 280 279 282 279 276 270 271 273 273 271 269 266 268 273 276 269 258 244 237 239 238 237 239 240 232 224 222 220 222 214 199 192 189 194 194 183 181 179 174 173 165 161 151 144 145 149 149 147 147 144 140 137 137 138 139 132 133 128 126 127 131 132 127 123 128 125 125 135 155 160 163 169 168 173 160 156 165
298 295 291 286 283 278 283 286 287 285 283 280 276 276 272 272 270 270 266 265 267 265 267 274 273 258 239 234 229 231 232 234 234 231 228 224 220 210 191 192 191 191 187 174 169 160 168 165 160 155 151 151 151 146 140 140 130 122 116 114 127 132 137 135 135 133 131 129 132 137 133 133 136 140 144 143 142 140 146 147 142 154 149 152 135
300 293 293 298 299 294 287 279 282 285 281 268 261 266 271 271 271 267 266 265 265 266 267 266 257 256 247 243 208 213 227 231 232 233 231 226 219 199 193 193 192 184 175 161 163 159 159 155 155 156 150 147 145 140 134 127 129 126 127 125 125 127 130 127 130 125 125 127 134 131 129 127 137 141 140 149 161 158 152 152 147 146 147 154 152
295 294 294 294 291 288 285 285 284 283 277 272 268 269 267 272 271 268 266 264 264 261 260 261 256 251 246 232 212 205 198 216 210 216 216 217 207 195 186 185 182 171 158 157 150 153 148 152 144 135 138 139 137 139 138 137 134 133 132 130 129 132 134 133 138 138 134 130 119 128 121 114 133 153 151 145 151 157 155 156 157 152 157 168 181
298 298 297 296 290 285 283 282 284 283 281 279 273 267 267 267 269 268 266 264 262 261 259 255 253 247 241 217 213 197 206 210 212 210 211 212 200 186 178 178 174 162 157 154 154 145 141 135 139 134 132 128 131 127 128 129 131 133 134 137 139 142 145 145 145 144 139 131 130 131 127 130 142 138 136 147 152 152 151 158 164 164 162 162 162
300 299 298 297 292 291 287 286 284 282 283 280 279 276 274 273 273 271 266 263 260 261 256 254 252 247 233 225 218 207 209 211 209 207 208 208 188 176 174 168 159 152 148 144 142 137 135 134 133 133 131 132 132 133 134 135 133 138 137 137 134 136 139 142 143 132 131 129 132 139 141 142 148 148 151 152 140 138 137 137 142 150 150 144 147
300 301 299 297 297 292 288 286 286 285 282 283 282 280 279 277 276 273 267 262 260 257 259 254 250 243 234 224 219 213 213 216 205 203 196 172 157 158 140 131 141 140 142 138 137 135 133 133 133 136 136 137 136 138 136 140 144 141 143 142 142 141 145 147 141 135 134 124 140 150 152 152 157 150 140 140 132 129 132 139 147 147 147 149 152
300 299 298 297 296 294 292 290 289 288 285 284 281 278 276 279 278 277 271 263 258 255 254 252 248 222 224 225 219 216 211 199 182 169 139 123 107 109 123 130 130 128 131 130 130 135 136 136 135 139 141 146 147 149 151 150 149 142 141 141 141 143 138 130 126 135 136 140 148 148 148 149 148 140 138 134 134 137 144 145 144 150 153 151 157
300 299 297 294 292 291 289 289 291 289 287 285 284 283 283 284 281 276 272 265 258 250 246 245 230 214 217 220 211 196 176 174 159 150 139 131 124 118 118 124 126 122 124 123 126 129 132 132 130 124 118 123 127 129 130 139 140 142 139 136 133 138 132 132 147 154 155 150 148 147 150 147 143 137 136 142 142 141 142 143 146 149 147 151 145
295 296 296 295 293 291 291 290 290 288 287 285 282 281 279 274 273 272 268 262 258 248 242 231 211 202 192 195 189 184 170 159 149 138 142 138 133 129 128 132 133 130 120 119 121 123 121 125 118 102 85 83 97 103 105 113 121 129 135 137 140 149 163 168 167 157 150 145 147 146 148 147 150 149 148 152 154 147 150 161 157 147 147 152 158
296 297 295 293 290 288 288 286 284 285 286 284 284 286 284 281 276 272 266 263 254 244 231 215 205 198 193 192 183 171 162 150 152 145 128 126 132 134 130 126 117 116 110 115 117 116 117 118 117 112 110 104 98 107 109 100 94 102 115 131 141 148 142 131 130 139 149 147 146 148 147 148 150 158 151 153 153 148 147 146 153 164 167 166 172
296 291 292 288 287 286 288 285 285 284 283 282 281 279 275 276 279 278 271 259 248 230 223 211 200 195 193 185 178 171 161 157 151 148 146 137 137 133 116 119 124 106 101 97 104 115 116 116 116 121 125 121 118 109 97 89 97 98 97 100 107 113 122 133 140 143 142 142 142 143 150 151 150 149 140 135 140 147 146 158 165 167 165 161 164
299 296 290 289 289 287 284 283 282 282 282 283 283 280 280 281 280 275 271 256 238 225 222 207 199 186 169 151 121 115 117 117 111 113 113 113 114 121 121 118 112 115 111 107 109 111 114 118 118 115 118 118 120 117 113 106 104 103 101 102 110 120 122 125 127 126 133 137 143 143 145 143 143 145 146 148 151 153 152 163 157 152 155 156 151
308 305 303 302 296 292 290 293 293 292 289 290 288 286 285 283 279 276 265 247 238 226 214 193 170 140 125 104 102 96 89 100 106 108 105 116 118 124 132 135 132 128 120 114 109 104 107 105 110 114 116 118 119 120 119 114 113 107 109 112 121 124 121 116 120 131 129 128 125 125 124 127 136 140 144 147 155 159 155 149 153 155 151 150 152
316 314 311 311 310 310 308 305 301 293 290 284 285 286 287 284 283 270 259 244 230 210 147 129 126 122 124 123 118 121 119 120 116 118 119 120 124 125 124 122 99 94 93 99 98 97 90 89 93 107 112 114 116 114 114 116 118 121 119 125 126 121 116 114 117 126 126 133 132 132 130 126 127 136 147 149 151 149 149 154 155 153 152 156 168
327 326 321 317 315 315 315 315 312 312 309 305 304 303 302 299 298 303 315 303 281 82 71 85 104 102 107 112 117 123 126 121 118 121 126 120 121 125 127 117 94 88 86 88 85 85 83 82 85 86 92 101 105 106 108 107 112 128 133 131 127 125 123 122 127 129 120 119 124 124 128 135 137 137 142 145 144 148 153 147 150 154 159 166 166